Location: Newark
(33.4453°N, 112.0669°W)
Time: 06:54:13
(UTC+00:00)

Transit 2A Rocket - All Passes

Search period start: 25 February 2020 00:00
Search period end: 06 March 2020 00:00
Orbit: 591 x 912 km, 66.7° (Epoch: 24 February)

Date Brightness Start Highest point End Pass type
(mag) Time Alt. Az. Time Alt. Az. Time Alt. Az.
25 Feb - 04:07:58 10° S 04:11:50 34° ESE 04:15:46 10° NE night (unlit)
25 Feb - 05:51:30 10° W 05:54:27 18° NW 05:57:27 10° N night (unlit)
25 Feb - 12:55:05 10° NNE 12:58:11 15° NE 13:01:24 10° E visible
25 Feb - 14:35:46 10° NNW 14:41:09 72° WSW 14:46:58 10° SSE daylight
26 Feb - 03:26:48 10° SE 03:29:31 17° ESE 03:32:16 10° ENE night (unlit)
26 Feb - 05:07:49 10° WSW 05:11:42 33° WNW 05:15:42 10° N night (unlit)
26 Feb - 13:53:16 10° NNW 13:58:37 65° ENE 14:04:23 10° SE daylight
26 Feb - 15:37:46 10° WNW 15:40:46 15° WSW 15:43:52 10° SW daylight
27 Feb - 04:24:51 10° SSW 04:29:05 68° WNW 04:33:28 10° NNE night (unlit)
27 Feb - 13:11:03 10° N 13:16:00 37° ENE 13:21:18 10° SE visible
27 Feb - 14:53:52 10° NW 14:58:26 27° WSW 15:03:16 10° SSW daylight
28 Feb - 03:42:26 10° S 03:46:36 56° ESE 03:50:54 10° NE night (unlit)
28 Feb - 05:27:50 10° WNW 05:29:32 12° NW 05:31:15 10° NNW night (unlit)
28 Feb - 12:29:10 10° N 12:33:17 22° NE 12:37:36 10° ESE visible
28 Feb - 14:10:47 10° NW 14:16:01 49° WSW 14:21:39 10° S daylight
29 Feb - 03:00:39 10° SSE 03:04:14 26° ESE 03:07:53 10° NE visible
29 Feb - 04:43:19 10° WSW 04:46:41 22° NW 04:50:09 10° N night (unlit)
29 Feb - 11:48:02 10° NNE 11:50:25 13° NE 11:52:52 10° ENE visible
29 Feb - 13:28:05 10° NNW 13:33:32 87° WSW 13:39:25 10° SSE visible
01 Mar - 02:20:03 10° SE 02:21:58 13° ESE 02:23:53 10° ENE visible
01 Mar - 03:59:56 10° SW 04:03:58 42° WNW 04:08:12 10° NNE visible
01 Mar - 12:45:41 10° NNW 12:50:59 53° ENE 12:56:40 10° SE visible
01 Mar - 14:29:28 10° WNW 14:33:13 19° WSW 14:37:08 10° SSW daylight
02 Mar - 03:17:09 10° SSW 03:21:25 88° WNW 03:25:50 10° NNE visible
02 Mar - 12:03:34 10° N 12:08:19 31° ENE 12:13:23 10° ESE visible
02 Mar - 13:45:57 10° NW 13:50:51 33° WSW 13:56:04 10° S daylight
03 Mar - 02:34:56 10° S 02:38:58 43° ESE 02:43:08 10° NE visible
03 Mar - 04:19:14 10° W 04:21:45 15° NW 04:24:19 10° NNW visible
03 Mar - 11:21:50 10° N 11:25:33 18° NE 11:29:26 10° E visible
03 Mar - 13:03:01 10° NW 13:08:25 60° WSW 13:14:13 10° SSE visible
04 Mar - 01:53:26 10° SSE 01:56:38 21° ESE 01:59:54 10° ENE visible
04 Mar - 03:35:16 10° WSW 03:38:56 27° WNW 03:42:46 10° N visible
04 Mar - 10:41:29 10° NE 10:42:38 11° NE 10:43:49 10° ENE visible
04 Mar - 12:20:26 10° NNW 12:25:54 78° ENE 12:31:48 10° SSE visible
04 Mar - 14:05:49 10° W 14:07:59 12° WSW 14:10:09 10° SW daylight
05 Mar - 02:52:06 10° SW 02:56:17 54° WNW 03:00:39 10° NNE visible
05 Mar - 11:38:07 10° NNW 11:43:19 44° ENE 11:48:53 10° SE visible
05 Mar - 13:21:22 10° WNW 13:25:40 23° WSW 13:30:10 10° SSW visible
